EW1392 Weather Reports


Display with metric or nautical units.
time (UTC)temp
F
wind
direction
speed
MPH
gust
MPH
rain 1hr
in
rain 24hr
in
rain mn
in
humidity
%
barometer
mb
20260510220007 68 153 0.0 7.0 0.00 0.00 0.00 43 1013.4
20260510214505 68 227 1.0 5.0 0.00 0.00 0.00 46 1013.4
20260510213004 67 246 0.0 5.0 0.00 0.00 0.00 45 1013.4
20260510211501 66 213 1.0 5.0 0.00 0.00 0.00 50 1013.5
20260510210100 65 216 0.0 2.0 0.00 0.00 0.00 56 1013.3
20260510204602 64 216 0.0 3.0 0.00 0.00 0.00 55 1013.2
20260510203058 64 201 0.0 1.0 0.00 0.00 0.00 56 1013.4
20260510201609 65 193 0.0 4.0 0.00 0.00 0.00 55 1013.7
20260510200058 66 252 0.0 7.0 0.00 0.00 0.00 55 1013.5
20260510194606 66 192 0.0 9.0 0.00 0.00 0.00 56 1013.4
20260510193058 66 253 0.0 3.0 0.00 0.00 0.00 60 1013.2
20260510191557 65 214 0.0 2.0 0.00 0.00 0.00 61 1012.9
20260510190052 64 163 0.0 2.0 0.00 0.00 0.00 60 1013.1
20260510184549 64 19 0.0 0.0 0.00 0.00 0.00 63 1013.0
20260510183048 64 19 0.0 0.0 0.00 0.00 0.00 67 1013.2
20260510181603 63 19 0.0 2.0 0.00 0.00 0.00 62 1013.4
20260510174542 62 19 0.0 0.0 0.00 0.00 0.00 67 1013.5
20260510173039 61 19 0.0 0.0 0.00 0.00 0.00 66 1013.6
20260510171545 61 19 0.0 2.0 0.00 0.00 0.00 65 1013.6
20260510170032 59 26 0.0 0.0 0.00 0.00 0.00 72 1013.3
20260510164529 56 26 0.0 0.0 0.00 0.00 0.00 73 1013.4
20260510163026 55 26 0.0 0.0 0.00 0.00 0.00 78 1013.7
20260510161521 53 26 0.0 0.0 0.00 0.00 0.00 81 1013.7
20260510160016 51 26 0.0 1.0 0.00 0.00 0.00 84 1013.4
20260510154512 50 26 0.0 0.0 0.00 0.00 0.00 89 1014.2
20260510153008 48 26 0.0 0.0 0.00 0.00 0.00 91 1014.1
20260510151507 46 26 0.0 0.0 0.00 0.00 0.00 94 1014.4
20260510150007 45 26 0.0 0.0 0.00 0.00 0.00 95 1014.3
20260510144504 43 26 0.0 0.0 0.00 0.00 0.00 95 1014.6
20260510143003 42 26 0.0 0.0 0.00 0.00 0.00 95 1014.9
20260510141503 41 26 0.0 0.0 0.00 0.00 0.00 95 1014.9
20260510140003 41 26 0.0 0.0 0.00 0.00 0.00 95 1014.8
20260510134501 40 26 0.0 0.0 0.00 0.00 0.00 94 1014.9
20260510133001 40 26 0.0 0.0 0.00 0.00 0.00 94 1014.7
20260510131605 40 26 0.0 0.0 0.00 0.00 0.00 94 1014.9
20260510124605 40 26 0.0 0.0 0.00 0.00 0.00 93 1015.1
20260510123100 40 26 0.0 0.0 0.00 0.00 0.00 93 1015.1
20260510121555 40 26 0.0 0.0 0.00 0.00 0.00 93 1015.0
20260510120054 41 26 0.0 0.0 0.00 0.00 0.00 93 1014.9
20260510114555 41 26 0.0 0.0 0.00 0.00 0.00 93 1014.9
20260510113051 41 26 0.0 0.0 0.00 0.00 0.00 92 1015.0
20260510111601 41 26 0.0 0.0 0.00 0.00 0.00 93 1015.0
20260510110048 41 26 0.0 0.0 0.00 0.00 0.00 92 1015.1
20260510104548 42 26 0.0 0.0 0.00 0.00 0.00 92 1015.1
20260510103046 42 26 0.0 0.0 0.00 0.00 0.00 91 1015.2
20260510101545 42 26 0.0 0.0 0.00 0.00 0.00 91 1015.1
20260510100048 42 26 0.0 0.0 0.00 0.00 0.00 91 1015.1
20260510094550 43 26 0.0 0.0 0.00 0.00 0.00 90 1015.2
20260510093040 43 26 0.0 0.0 0.00 0.00 0.00 89 1015.3
20260510091542 44 26 0.0 0.0 0.00 0.00 0.00 89 1015.6
20260510090037 44 26 0.0 0.0 0.00 0.00 0.00 88 1015.6
20260510084535 45 26 0.0 0.0 0.00 0.00 0.00 87 1015.7
20260510083049 45 26 0.0 0.0 0.00 0.00 0.00 87 1015.4
20260510081531 46 26 0.0 0.0 0.00 0.00 0.00 87 1015.4
20260510080029 46 26 0.0 0.0 0.00 0.00 0.00 86 1015.5
20260510074527 47 26 0.0 0.0 0.00 0.00 0.00 86 1015.4
20260510073027 47 26 0.0 0.0 0.00 0.00 0.00 85 1015.2
20260510071533 47 26 0.0 0.0 0.00 0.00 0.00 85 1015.3
20260510070022 48 26 0.0 0.0 0.00 0.00 0.00 84 1015.4
20260510064521 49 26 0.0 0.0 0.00 0.00 0.00 83 1015.2
20260510063022 49 26 0.0 0.0 0.00 0.00 0.00 82 1015.1
20260510061522 50 26 0.0 0.0 0.00 0.00 0.00 81 1015.3
20260510060034 51 26 0.0 0.0 0.00 0.00 0.00 80 1015.3
20260510054527 52 26 0.0 0.0 0.00 0.00 0.00 79 1015.3
20260510053019 52 26 0.0 0.0 0.00 0.00 0.00 78 1015.5
20260510051519 53 26 0.0 0.0 0.00 0.00 0.00 78 1015.4
20260510050018 54 26 0.0 0.0 0.00 0.00 0.00 77 1015.4
20260510044518 55 26 0.0 0.0 0.00 0.00 0.00 75 1015.5
20260510043017 56 26 0.0 0.0 0.00 0.00 0.00 74 1015.3
20260510041519 57 26 0.0 0.0 0.00 0.00 0.00 72 1015.2
20260510040016 58 26 0.0 0.0 0.00 0.00 0.00 70 1015.0
20260510034521 59 26 0.0 0.0 0.00 0.00 0.00 68 1014.9
20260510033015 61 26 0.0 0.0 0.00 0.00 0.00 67 1014.8
20260510031515 62 26 0.0 0.0 0.00 0.00 0.00 65 1014.6
20260510030019 64 27 0.0 0.0 0.00 0.00 0.00 60 1014.5
20260510024513 65 27 0.0 0.0 0.00 0.00 0.00 60 1014.5
20260510023013 67 27 0.0 0.0 0.00 0.00 0.00 56 1014.6
20260510021513 68 27 0.0 0.0 0.00 0.00 0.00 49 1014.5
20260510020011 69 27 0.0 0.0 0.00 0.00 0.00 48 1014.6
20260510014510 70 27 0.0 0.0 0.00 0.00 0.00 39 1014.6
20260510013008 70 27 0.0 0.0 0.00 0.00 0.00 40 1015.0
20260510011509 71 27 0.0 0.0 0.00 0.00 0.00 40 1015.1
20260510010006 71 27 0.0 2.0 0.00 0.00 0.00 38 1015.2
20260510004505 72 209 0.0 1.0 0.00 0.00 0.00 39 1015.2
20260510003011 73 190 0.0 0.0 0.00 0.00 0.00 43 1015.2
20260510001504 73 190 0.0 1.0 0.00 0.00 0.00 39 1015.3
20260510000004 73 169 0.0 0.0 0.00 0.00 0.00 35 1015.1
20260509234502 73 215 0.0 1.0 0.00 0.00 0.00 35 1015.3
20260509233059 74 215 0.0 3.0 0.00 0.00 0.00 35 1015.4
20260509231604 74 200 0.0 3.0 0.00 0.00 0.00 32 1015.5
20260509230059 75 237 1.0 3.0 0.00 0.00 0.00 31 1015.7
20260509224558 74 196 0.0 1.0 0.00 0.00 0.00 34 1015.9
20260509223053 74 214 0.0 3.0 0.00 0.00 0.00 31 1016.1
20260509221551 74 267 0.0 1.0 0.00 0.00 0.00 31 1016.3